STARLINK-4734, 53790

Orbit data source: Space-Track

STARLINK-4734, 53790 is a payload satellite owned by SpaceX/Seattle (US) in LEO that was launched on Sun, 11 Sep 2022 UTC via an FALCON 9 launch vehicle from the Air Force Eastern Test Range (AFETR). Payload-class satellites include a variety of spacecraft equipped with specific instruments for various scientific and technological missions. These include communications satellites like Starlink; space stations such as the ISS; scientific satellites like the Hubble; Earth observation satellites from companies like Planet Labs, Umbra, and HawkEye 360; GPS; miniature CubeSats for education and research; and military/defense satellites.

Loading next visibility...
Identifier
53790, 2022-111T
Orbit
LEO
Country
Flag of USUS
Related business
Manufacturer
SpaceX/Seattle
Mission
Operational Commercial Communications
Bus & Motor
STARLINK, Unknown motor
Mass
305 kg wet, ~290 kg dry
Launch date (UTC)
2022-09-11 (3 years ago)
Launch vehicle
FALCON 9
Launch site
Air Force Eastern Test Range (AFETR)
Object type
Payload
Rocket body
Debris
Shape & HBR
Box + 1 Pan, 10.1 m
Radar Cross Section
13.562 m², Large (>1 m²)

Expand to show TLE details & history
Last TLE update: 10 hours ago

TLE from 10 hours ago
0 STARLINK-4734
1 53790U 22111T   26035.34304336 -.00002911  00000-0 -16498-3 0  9999
2 53790  53.2181  63.6986 0001280 106.3373 253.7760 15.08821084188664
Epoch: 2026-02-04T08:13Z
TLE epoch observation values (Epoch: 2026-02-04T08:13:58.946Z)
Latitude
-0.00001°
Longitude
165.69199°
Altitude
540.946 km
Speed
7.593 km/s
True Right ascension
04h 14m 47s
True Declination
0° 00' 00"
Sunlit
Object was in daylight at epoch
Visualization orbit readout
Latitude
Unknown
Longitude
Unknown
Altitude
Unknown
Speed
Unknown
Apparent Right ascension
Unknown
Apparent Declination
Unknown
Sunlit
N/A
Visualization observer readout
Local Sidereal Time
20:17:33
Azimuth
Unknown
Elevation
Unknown
Doppler factor
Unknown
Orbital elements
Apogee altitude
540.932 km
Perigee altitude
539.161 km
Semi-major axis
6,918.183 km
Eccentricity
0.00013
Inclination
53.2181°
RAAN
63.6986°
Arg. of periapsis
106.3373°
True anomaly
253.76192°
Mean anomaly
253.776°
Eccentric anomaly
253.76896°
Mean motion
3.77186 °/min
Orbital period
95.44 mins
BSTAR
-0.00016498
Loading maneuver chart data...
Computing Atmospheric mass density...
Loading historical data...
Loading historical data...
Loading historical data...
Loading historical data...
Loading historical data...
Loading historical data...
Loading historical data...

Documentation

Showing up to 5 results
|